HULIANWANG DIGUI-23

Satellite information

Favourite Embed

Satellite Type and Status

PAYLOADIN ORBIT

Key statistics

Satellite HULIANWANG DIGUI-23 at a glance.

Uptime

229

Days in orbit

Revolutions

≈ 13.2

Per day

Orbit

LEO

Low Earth Orbit

Inclination

86.5

Latest

Satellite identification and parameters

Extended collection of information and parameters for HULIANWANG DIGUI-23.

Object identification

Identified? True

Debris? False

Object name: HULIANWANG DIGUI-23

International designator: 2025-086D

Object number (NORAD): 63690

Object ID (CCSDS): 63690

Country: PEOPLES REPUBLIC OF CHINA (PRC)

Current information (Y/N): Y

RCS size: LARGE

Orbital parameters

Period: 108.727 minutes

Inclination: 86.5099 deg

SMA: 7546.041 km

Apoapsis: 1169.357 km

Periapsis: 1166.454 km

RAAN: 16.0956 deg

Eccentricy: 0.00019236

Argument of periapsis: 87.9798 deg

Mean anomaly: 272.1556 deg

Mean motion: 13.24414849 rev/day

Mean motion (dot): 0.00000036 rev/day2

B* drag term: 0.00005047323 1/REarth

Two-line elements (TLE)

Creation date: Dec. 12, 2025, 10:14 a.m.

Reference frame: TEME

Reference center: EARTH

Epoch: Dec. 12, 2025, 7:12 a.m. UTC

TLE line 0: 0 HULIANWANG DIGUI-23

TLE line 1: 1 63690U 25086D 25346.30013794 .00000036 00000-0 50473-4 0 9994

TLE line 2: 2 63690 86.5099 16.0956 0001924 87.9798 272.1556 13.24414849 30128

Live tracking on map

Real-time ground track for satellite HULIANWANG DIGUI-23.

In-orbit conjunctions

There are no conjunctions computed for HULIANWANG DIGUI-23, at the moment. Check back to stay up to date, as we update our databases every day.

Go to all conjunctions

Associated space launch

A batch of 10 Low Earth Orbit communication satellites for the Chinese state owned SatNet constellation operated by the China Satellite Network Group. The constellation will eventually consists of 13000 satellites.

HULIANWANG DIGUI-23 was lifted into orbit during the mission ‘Long March 5B/YZ-2 | SatNet LEO Group 03’, on board a Long March 5B/YZ-2 space rocket.

The launch took place on April 28, 2025, 8:10 p.m. from 101.

For more information about the launch, click the button.

Launch to space Long March 5B/YZ-2 | SatNet LEO Group 03
Long March 5B/YZ-2 | SatNet LEO Group 03

Agency: N/A

Status: Launch Successful

Launch date: April 28, 2025, 8:10 p.m. UTC

Rocket: Long March 5B/YZ-2

Launch pad: 101

Location: Wenchang Space Launch Site, People's Republic of China

...

Latest news about this satellite

News about space launch
China launches third batch of Guowang megaconstellation satellites

China launched a third batch of Guowang megaconstellation satellites Tuesday, advancing its ambitious low Earth orbit communications network to rival Starlink and other global systems. The post China launches third batch of Guowang megaconstellation sate...


Newsletter sign-up

Weekly statistics, charts and insights to help you stay on top of the space industry.